Regional Weather Roundup
Issued by NWS Sioux Falls, SD

Home | Current Version | Previous Version | Text Only | Print | Product List | Glossary Off
Versions: 1 2 3 4 5 6 7 8 9 10 11 12 13 14 15 16 17 18 19 20 21 22 23 24 25 26 27 28 29 30 31 32 33 34 35 36 37 38 39 40 41 42 43 44 45 46 47 48 49 50

000
ASUS43 KFSD 301110
RWRFSD

WEATHER ROUNDUP FOR SE SOUTH DAKOTA/SW MINNESOTA/NW IOWA
NATIONAL WEATHER SERVICE SIOUX FALLS SD
600 AM CDT SAT APR 30 2016

NOTE: "FAIR" INDICATES FEW OR NO CLOUDS BELOW 12,000 FEET WITH NO
SIGNIFICANT WEATHER AND OR OBSTRUCTIONS TO VISIBILITY.


SDZ038>040-050-052>070-301200-
SOUTHEAST SOUTH DAKOTA

CITY           SKY/WX    TMP DP  RH WIND       PRES   REMARKS
BROOKINGS      CLOUDY    42  37  82 E12       29.97F
CHAMBERLAIN    CLOUDY    44  42  92 NE10      29.96S
HURON          CLOUDY    41  38  89 NE8       30.00S
MADISON        FAIR      39  39 100 NE17      29.95F
MITCHELL       CLOUDY    43  39  86 NE13      29.96S
SIOUX FALLS    CLOUDY    44  37  76 E17G28    29.92F
WINNER         LGT RAIN  43  39  86 NE13      29.94S
YANKTON        MOCLDY    43  37  81 NE17G24   29.87S
$$

MNZ071-072-080-081-089-090-097-098-301200-
SOUTHWEST MINNESOTA

CITY           SKY/WX    TMP DP  RH WIND       PRES   REMARKS
FAIRMONT       CLOUDY    45  30  57 NE15      29.98F
JACKSON        CLOUDY    43  36  75 NE17      29.97F
LUVERNE        CLOUDY    43  36  75 NE17      29.93F
MARSHALL       CLOUDY    42  39  89 NE14      30.02F
MONTEVIDEO     CLOUDY    39  36  87 E13       30.07F
REDWOOD FALLS  CLOUDY    42  34  73 E7        30.04F
TRACY          CLOUDY    41  39  95 NE7       30.02S
WINDOM         CLOUDY    43  39  87 NE12      29.99F
WORTHINGTON    MOCLDY    42  38  85 NE20      29.95F
$$

IAZ001>003-012>014-020>022-031-032-NEZ013-014-SDZ071-301200-
NORTHWEST IOWA

CITY           SKY/WX    TMP DP  RH WIND       PRES   REMARKS
CHEROKEE       DRIZZLE   43  41  93 NE20G25   29.87F
DENISON        LGT RAIN  43  41  93 E24G33    29.78F
ESTHERVILLE    CLOUDY    43  39  86 NE18      29.95F
LE MARS        LGT RAIN  45  41  87 E16G23    29.88S
ORANGE CITY    DRIZZLE   45  39  81 E17G25    29.87F
SHELDON        CLOUDY    45  39  81 E23G30    29.89F
SIOUX CITY     HVY RAIN  45  41  86 E20G28    29.84F FOG
SPENCER        CLOUDY    44  38  79 NE23G29   29.91F
STORM LAKE     MIX PCPN  43  41  93 E29G36    29.85F
$$

ABBREVIATIONS USED IN REMARKS
   TC - TEMPERATURE IN CELSIUS
  WCI - WIND CHILL INDEX
   HX - HEAT INDEX
  VSB - VISIBILITY





USA.gov is the U.S. government's official web portal to all federal, state and local government web resources and services.